This demonstration page uses our WeatherBlox Daily Observations layout. Learn more.

Left ArrowRight Arrow

31.31129, -92.44514

Hourly Observations for September 27, 2022

Temp ( °F °C ) Dew Point ( °F °C ) Humidity (%) Winds ( mph kmh ) Pressure ( in mb ) Visibility ( mi km ) Precip ( " mm )
12:53 am 00:53 Clear 61 16.1 52 11.1 72 72 Calm 30.04 1017 10 16 0.00 0.00
1:53 am 01:53 Clear 56 13.3 52 11.1 87 87 NNW 3 6 30.04 1017 10 16 0.00 0.00
2:53 am 02:53 Clear 58 14.4 51 10.6 78 78 WNW 3 6 30.04 1017 10 16 0.00 0.00
3:53 am 03:53 Clear 56 13.3 51 10.6 84 84 W 3 6 30.04 1017 10 16 0.00 0.00
4:53 am 04:53 Clear 56 13.3 50 10 80 80 Calm 30.05 1018 10 16 0.00 0.00
5:53 am 05:53 Clear 55 12.8 51 10.6 86 86 Calm 30.06 1018 10 16 0.00 0.00
6:53 am 06:53 Clear 55 12.8 51 10.6 86 86 Calm 30.09 1019 10 16 0.00 0.00
7:53 am 07:53 Sunny 56 13.3 49 9.4 77 77 Calm 30.11 1020 10 16 0.00 0.00
8:53 am 08:53 Sunny 67 19.4 51 10.6 57 57 Calm 30.12 1020 10 16 0.00 0.00
9:53 am 09:53 Sunny 73 22.8 50 10 44 44 E 5 7 30.14 1021 10 16 0.00 0.00
10:53 am 10:53 Sunny 79 26.1 48 8.9 34 34 NE 10 17 30.15 1021 10 16 0.00 0.00
11:53 am 11:53 Sunny 81 27.2 46 7.8 29 29 ENE 10 17 30.14 1021 10 16 0.00 0.00
12:53 pm 12:53 Sunny 83 28.3 44 6.7 26 26 NE 12 19 30.13 1020 10 16 0.00 0.00
1:53 pm 13:53 Sunny 84 28.9 44 6.7 25 25 ENE 12 19 30.11 1020 10 16 0.00 0.00
2:53 pm 14:53 Sunny 85 29.4 45 7.2 25 25 NNE 13 20 30.08 1019 10 16 0.00 0.00
3:53 pm 15:53 Sunny 85 29.4 45 7.2 25 25 NNE 13 20 30.07 1018 10 16 0.00 0.00
4:53 pm 16:53 Sunny 85 29.4 46 7.8 26 26 NE 10 17 30.06 1018 10 16 0.00 0.00
5:53 pm 17:53 Sunny 82 27.8 44 6.7 26 26 NE 7 11 30.08 1019 10 16 0.00 0.00
6:53 pm 18:53 Sunny 78 25.6 46 7.8 32 32 NE 3 6 30.09 1019 10 16 0.00 0.00
7:53 pm 19:53 Clear 68 20 50 10 53 53 Calm 30.10 1019 10 16 0.00 0.00
8:53 pm 20:53 Clear with Light Rain 66 18.9 52 11.1 61 61 Calm 30.12 1020 10 16 0.01 0.13
9:53 pm 21:53 Clear 61 16.1 50 10 67 67 NNE 7 11 30.14 1021 10 16 0.01 0.13
10:53 pm 22:53 Clear 62 16.7 49 9.4 62 62 Calm 30.14 1021 10 16 0.00 0.00
11:53 pm 23:53 Clear 64 17.8 50 10 60 60 NNE 7 11 30.15 1021 10 16 0.00 0.00

Powered by AerisWeather